GW2484 Weather Reports


Display with metric or nautical units.
time (UTC)temp
F
wind
direction
speed
MPH
gust
MPH
rain 1hr
in
rain 24hr
in
rain mn
in
humidity
%
barometer
mb
20260504234520 77 158 6.0 18.0 0.00 0.00 0.00 54 1004.3
20260504234004 77 151 10.0 16.0 0.00 0.00 0.00 54 1004.2
20260504233503 77 167 8.0 16.0 0.00 0.00 0.00 54 1004.3
20260504233023 77 153 8.0 18.0 0.00 0.00 0.00 54 1004.3
20260504232503 77 171 8.0 18.0 0.00 0.00 0.00 54 1004.4
20260504232007 77 156 7.0 19.0 0.00 0.00 0.00 54 1004.3
20260504231512 77 142 8.0 19.0 0.00 0.00 0.00 54 1004.4
20260504231006 77 196 6.0 21.0 0.00 0.00 0.00 54 1004.5
20260504230507 77 154 10.0 21.0 0.00 0.00 0.00 53 1004.4
20260504230010 77 160 10.0 21.0 0.00 0.00 0.00 53 1004.4
20260504225504 77 172 7.0 22.0 0.00 0.00 0.00 53 1004.5
20260504225007 78 182 10.0 22.0 0.00 0.00 0.00 53 1004.5
20260504224507 78 155 7.0 20.0 0.00 0.00 0.00 52 1004.5
20260504224007 78 167 10.0 20.0 0.00 0.00 0.00 52 1004.4
20260504223507 78 171 13.0 20.0 0.00 0.00 0.00 53 1004.4
20260504223004 78 171 7.0 16.0 0.00 0.00 0.00 53 1004.3
20260504222508 78 148 9.0 16.0 0.00 0.00 0.00 53 1004.2
20260504222008 79 155 8.0 18.0 0.00 0.00 0.00 53 1004.2
20260504221527 79 173 10.0 18.0 0.00 0.00 0.00 53 1004.1
20260504221006 79 172 6.0 17.0 0.00 0.00 0.00 53 1003.9
20260504220506 79 176 8.0 18.0 0.00 0.00 0.00 53 1004.1
20260504220020 79 154 8.0 15.0 0.00 0.00 0.00 53 1004.2
20260504215507 79 143 8.0 14.0 0.00 0.00 0.00 52 1004.3
20260504215006 79 164 7.0 12.0 0.00 0.00 0.00 52 1004.5
20260504213504 79 200 7.0 23.0 0.00 0.00 0.00 53 1004.4
20260504213032 79 168 8.0 22.0 0.00 0.00 0.00 52 1004.6
20260504212506 79 167 9.0 22.0 0.00 0.00 0.00 51 1004.6
20260504212013 79 167 14.0 22.0 0.00 0.00 0.00 51 1004.5
20260504211515 79 198 9.0 21.0 0.00 0.00 0.00 52 1004.6
20260504211003 79 137 10.0 24.0 0.00 0.00 0.00 51 1004.5
20260504210511 79 94 10.0 24.0 0.00 0.00 0.00 52 1004.6
20260504210014 79 146 9.0 20.0 0.00 0.00 0.00 51 1004.7
20260504205506 79 119 12.0 20.0 0.00 0.00 0.00 51 1004.6
20260504205013 80 179 10.0 20.0 0.00 0.00 0.00 51 1004.8
20260504204513 79 144 13.0 26.0 0.00 0.00 0.00 51 1004.8
20260504204009 79 150 16.0 26.0 0.00 0.00 0.00 50 1004.9
20260504203507 80 144 9.0 26.0 0.00 0.00 0.00 51 1005.0
20260504203006 80 134 11.0 27.0 0.00 0.00 0.00 52 1005.0
20260504202507 79 164 8.0 27.0 0.00 0.00 0.00 52 1005.2
20260504202007 80 164 12.0 22.0 0.00 0.00 0.00 50 1005.3
20260504201528 80 158 10.0 22.0 0.00 0.00 0.00 52 1005.4
20260504201011 80 174 12.0 19.0 0.00 0.00 0.00 51 1005.5
20260504200509 80 151 10.0 22.0 0.00 0.00 0.00 52 1005.6
20260504200026 80 152 8.0 22.0 0.00 0.00 0.00 51 1005.6
20260504195507 80 166 10.0 17.0 0.00 0.00 0.00 52 1005.6
20260504195004 81 191 10.0 22.0 0.00 0.00 0.00 51 1005.7
20260504194525 80 157 9.0 22.0 0.00 0.00 0.00 49 1005.7
20260504194007 80 183 11.0 25.0 0.00 0.00 0.00 49 1005.7
20260504193505 80 183 9.0 21.0 0.00 0.00 0.00 52 1005.7
20260504193020 80 142 12.0 21.0 0.00 0.00 0.00 49 1005.7
20260504192510 80 155 8.0 24.0 0.00 0.00 0.00 50 1005.7
20260504192008 80 152 14.0 25.0 0.00 0.00 0.00 48 1005.8
20260504191516 80 190 17.0 25.0 0.00 0.00 0.00 48 1005.8
20260504191004 80 136 9.0 22.0 0.00 0.00 0.00 49 1005.8
20260504190509 80 164 10.0 22.0 0.00 0.00 0.00 49 1005.9
20260504190020 80 161 11.0 19.0 0.00 0.00 0.00 50 1006.0
20260504185512 79 158 8.0 26.0 0.00 0.00 0.00 51 1006.1
20260504185007 80 157 14.0 26.0 0.00 0.00 0.00 51 1006.2
20260504184529 80 181 13.0 24.0 0.00 0.00 0.00 50 1006.4
20260504184015 80 163 11.0 26.0 0.00 0.00 0.00 50 1006.3
20260504183512 80 178 9.0 26.0 0.00 0.00 0.00 50 1006.4
20260504183012 80 173 11.0 23.0 0.00 0.00 0.00 50 1006.5
20260504182517 80 176 11.0 23.0 0.00 0.00 0.00 51 1006.6
20260504182008 81 166 11.0 23.0 0.00 0.00 0.00 49 1006.6
20260504181528 80 160 6.0 23.0 0.00 0.00 0.00 53 1006.6
20260504181008 80 184 8.0 18.0 0.00 0.00 0.00 50 1006.7
20260504180505 80 150 9.0 21.0 0.00 0.00 0.00 50 1006.8
20260504180032 80 214 7.0 21.0 0.00 0.00 0.00 51 1006.9
20260504175507 79 135 11.0 23.0 0.00 0.00 0.00 51 1007.0
20260504175015 79 193 10.0 24.0 0.00 0.00 0.00 51 1007.0
20260504174504 79 194 11.0 24.0 0.00 0.00 0.00 50 1007.1
20260504174008 79 161 9.0 23.0 0.00 0.00 0.00 50 1007.1
20260504173505 79 167 12.0 23.0 0.00 0.00 0.00 51 1007.2
20260504173025 78 175 12.0 20.0 0.00 0.00 0.00 50 1007.4
20260504172508 78 162 10.0 23.0 0.00 0.00 0.00 50 1007.4
20260504172004 78 165 9.0 23.0 0.00 0.00 0.00 51 1007.4
20260504171522 78 171 8.0 24.0 0.00 0.00 0.00 51 1007.5
20260504171013 78 211 11.0 22.0 0.00 0.00 0.00 51 1007.5
20260504170505 78 154 11.0 20.0 0.00 0.00 0.00 51 1007.5
20260504151007 74 182 9.0 15.0 0.00 0.00 0.00 50 1008.7
20260504150506 73 223 7.0 16.0 0.00 0.00 0.00 51 1008.7
20260504141017 68 206 7.0 16.0 0.00 0.00 0.00 57 1008.9
20260504140509 68 196 7.0 16.0 0.00 0.00 0.00 58 1008.9
20260504130504 64 162 7.0 12.0 0.00 0.00 0.00 63 1009.2
20260504110505 63 210 5.0 12.0 0.00 0.00 0.00 59 1009.3
20260504100503 64 176 8.0 13.0 0.00 0.00 0.00 57 1009.7
20260504081525 65 192 4.0 14.0 0.00 0.00 0.00 53 1010.2
20260504081012 65 154 4.0 14.0 0.00 0.00 0.00 52 1010.2
20260504080503 65 163 5.0 10.0 0.00 0.00 0.00 52 1010.4
20260504050508 66 156 4.0 10.0 0.00 0.00 0.00 53 1012.0
20260504050015 66 167 3.0 8.0 0.00 0.00 0.00 53 1012.0
20260504045510 66 159 2.0 7.0 0.00 0.00 0.00 53 1012.1
20260504045007 67 167 2.0 7.0 0.00 0.00 0.00 52 1012.0
20260504044515 67 150 2.0 8.0 0.00 0.00 0.00 52 1012.1
20260504044013 67 191 3.0 8.0 0.00 0.00 0.00 52 1012.1
20260504043508 67 135 3.0 10.0 0.00 0.00 0.00 51 1012.2
20260504043026 68 185 3.0 10.0 0.00 0.00 0.00 51 1012.2
20260504042508 68 188 5.0 10.0 0.00 0.00 0.00 51 1012.2
20260504042006 68 182 4.0 13.0 0.00 0.00 0.00 50 1012.2
20260504041529 68 189 4.0 13.0 0.00 0.00 0.00 50 1012.2
20260504041007 68 176 3.0 11.0 0.00 0.00 0.00 50 1012.2
20260504040507 68 172 5.0 11.0 0.00 0.00 0.00 49 1012.2
20260504040028 69 172 3.0 9.0 0.00 0.00 0.00 49 1012.2
20260504035507 69 163 3.0 9.0 0.00 0.00 0.00 49 1012.3
20260504035010 69 174 3.0 10.0 0.00 0.00 0.00 48 1012.3
20260504034528 69 153 4.0 12.0 0.00 0.00 0.00 48 1012.3
20260504034006 69 152 4.0 12.0 0.00 0.00 0.00 48 1012.3
20260504033511 70 185 3.0 10.0 0.00 0.00 0.00 48 1012.3
20260504033020 70 158 5.0 11.0 0.00 0.00 0.00 47 1012.3
20260504032510 70 192 2.0 11.0 0.00 0.00 0.00 47 1012.4
20260504032013 70 197 4.0 12.0 0.00 0.00 0.00 47 1012.4
20260504031520 70 196 4.0 12.0 0.00 0.00 0.00 46 1012.3
20260504031012 71 162 3.0 9.0 0.00 0.00 0.00 46 1012.3
20260504030511 71 167 2.0 9.0 0.00 0.00 0.00 46 1012.3
20260504030019 71 162 3.0 8.0 0.00 0.00 0.00 46 1012.3
20260504025508 71 198 2.0 9.0 0.00 0.00 0.00 45 1012.3
20260504025007 71 156 4.0 9.0 0.00 0.00 0.00 45 1012.2
20260504024533 71 189 3.0 8.0 0.00 0.00 0.00 44 1012.2
20260504024006 72 189 4.0 8.0 0.00 0.00 0.00 44 1012.1
20260504023506 72 183 2.0 8.0 0.00 0.00 0.00 44 1012.1
20260504023028 72 153 3.0 11.0 0.00 0.00 0.00 43 1012.1
20260504022506 72 169 6.0 11.0 0.00 0.00 0.00 43 1012.1
20260504022010 73 169 2.0 10.0 0.00 0.00 0.00 43 1012.0
20260504021529 73 156 3.0 10.0 0.00 0.00 0.00 42 1012.0
20260504020504 73 169 4.0 13.0 0.00 0.00 0.00 42 1011.9
20260504020008 73 160 4.0 11.0 0.00 0.00 0.00 42 1011.8
20260504015509 74 148 2.0 8.0 0.00 0.00 0.00 41 1011.8
20260504015010 74 157 3.0 7.0 0.00 0.00 0.00 41 1011.9
20260504014503 74 166 1.0 6.0 0.00 0.00 0.00 40 1011.9
20260504014008 74 189 3.0 7.0 0.00 0.00 0.00 40 1011.8
20260504013505 75 167 2.0 7.0 0.00 0.00 0.00 39 1011.8
20260504013005 75 177 2.0 7.0 0.00 0.00 0.00 39 1011.7
20260504012507 75 216 2.0 7.0 0.00 0.00 0.00 39 1011.7
20260504012011 76 167 3.0 7.0 0.00 0.00 0.00 38 1011.7
20260504011523 76 173 2.0 7.0 0.00 0.00 0.00 38 1011.7
20260504011007 76 148 2.0 6.0 0.00 0.00 0.00 37 1011.9
20260504010503 77 168 3.0 7.0 0.00 0.00 0.00 37 1011.8
20260504010019 77 175 3.0 7.0 0.00 0.00 0.00 35 1011.8
20260504005506 77 148 2.0 9.0 0.00 0.00 0.00 35 1011.8
20260504005004 78 178 3.0 9.0 0.00 0.00 0.00 34 1011.8
20260504004519 78 192 1.0 6.0 0.00 0.00 0.00 34 1011.8
20260504004007 78 202 3.0 13.0 0.00 0.00 0.00 33 1011.7
20260504003511 78 204 3.0 13.0 0.00 0.00 0.00 32 1011.7
20260504003033 79 182 3.0 9.0 0.00 0.00 0.00 32 1011.8
20260504002503 79 211 2.0 10.0 0.00 0.00 0.00 32 1011.8
20260504002007 79 210 5.0 12.0 0.00 0.00 0.00 31 1011.7
20260504001513 80 192 4.0 12.0 0.00 0.00 0.00 31 1011.8
20260504001005 80 210 5.0 12.0 0.00 0.00 0.00 30 1011.8
20260504000507 80 206 5.0 13.0 0.00 0.00 0.00 30 1011.8
20260504000011 81 227 4.0 13.0 0.00 0.00 0.00 29 1011.8
20260503235508 81 179 5.0 13.0 0.00 0.00 0.00 28 1011.8